TimePDT,TemperatureF,Dew PointF,Humidity,Sea Level PressureIn,VisibilityMPH,Wind Direction,Wind SpeedMPH,Gust SpeedMPH,PrecipitationIn,Events,Conditions,WindDirDegrees,DateUTC
12:56 AM,46.0,41.0,83,29.89,10.0,Calm,Calm,-,N/A,,Clear,0,2013-08-24 07:56:00
1:56 AM,45.0,41.0,86,29.90,10.0,Calm,Calm,-,N/A,,Mostly Cloudy,0,2013-08-24 08:56:00
2:56 AM,46.0,41.0,83,29.89,10.0,Calm,Calm,-,N/A,,Mostly Cloudy,0,2013-08-24 09:56:00
3:56 AM,44.1,39.9,85,29.88,10.0,Calm,Calm,-,N/A,,Clear,0,2013-08-24 10:56:00
4:56 AM,44.1,39.0,82,29.88,10.0,Calm,Calm,-,N/A,,Mostly Cloudy,0,2013-08-24 11:56:00
5:56 AM,42.1,37.9,85,29.88,10.0,Calm,Calm,-,N/A,,Clear,0,2013-08-24 12:56:00
6:56 AM,43.0,39.0,86,29.89,10.0,Calm,Calm,-,N/A,,Clear,0,2013-08-24 13:56:00
7:56 AM,48.9,41.0,74,29.89,10.0,Calm,Calm,-,N/A,,Clear,0,2013-08-24 14:56:00
8:56 AM,62.1,42.1,48,29.87,10.0,Calm,Calm,-,N/A,,Clear,0,2013-08-24 15:56:00
9:56 AM,66.9,41.0,39,29.87,10.0,Calm,Calm,-,N/A,,Clear,0,2013-08-24 16:56:00
10:56 AM,68.0,42.1,39,29.88,10.0,Variable,3.5,-,N/A,,Clear,0,2013-08-24 17:56:00
11:56 AM,70.0,43.0,38,29.87,10.0,Variable,3.5,-,N/A,,Clear,0,2013-08-24 18:56:00
12:56 PM,72.0,43.0,35,29.86,10.0,Variable,4.6,-,N/A,,Clear,0,2013-08-24 19:56:00
1:56 PM,73.9,43.0,33,29.85,10.0,Variable,6.9,-,N/A,,Clear,0,2013-08-24 20:56:00
2:56 PM,75.0,44.1,33,29.83,10.0,Variable,5.8,-,N/A,,Clear,0,2013-08-24 21:56:00
3:56 PM,75.0,43.0,32,29.83,10.0,Calm,Calm,-,N/A,,Clear,0,2013-08-24 22:56:00
4:56 PM,73.9,43.0,33,29.82,10.0,Variable,4.6,-,N/A,,Clear,0,2013-08-24 23:56:00
5:56 PM,73.0,43.0,34,29.83,10.0,Variable,4.6,-,N/A,,Clear,0,2013-08-25 00:56:00
6:56 PM,69.1,44.1,40,29.86,10.0,Calm,Calm,-,N/A,,Clear,0,2013-08-25 01:56:00
7:56 PM,66.0,44.1,45,29.88,10.0,Calm,Calm,-,N/A,,Clear,0,2013-08-25 02:56:00
8:56 PM,59.0,44.1,58,29.88,10.0,Calm,Calm,-,N/A,,Partly Cloudy,0,2013-08-25 03:56:00
9:56 PM,55.0,44.1,67,29.90,10.0,Calm,Calm,-,N/A,,Clear,0,2013-08-25 04:56:00
10:56 PM,55.0,44.1,67,29.91,10.0,Calm,Calm,-,N/A,,Scattered Clouds,0,2013-08-25 05:56:00
11:56 PM,54.0,45.0,72,29.91,10.0,Calm,Calm,-,N/A,,Clear,0,2013-08-25 06:56:00